• In Hungary
  • List of Countries
  • For 7 days
  • Water Temperature
  • Satellite Maps
  • Weather Map
  • News
  • Weather Widgets
  • user-avatar
    Login

    Hourly Weather Goteborg

    Today, 21 May, Monday

    Time Temperature Precipitation Wind Pressure Humidity
    00:00 +12°C° 0 mm 1 mps 769 mmHg 81%
    01:00 +12°C° 0 mm 1 mps 769 mmHg 83%
    02:00 +11°C° 0 mm 1 mps 769 mmHg 83%
    03:00 +10°C° 0 mm 2 mps 769 mmHg 83%
    04:00 +10°C° 0 mm 2 mps 769 mmHg 82%
    05:00 +13°C° 0 mm 2 mps 770 mmHg 73%
    06:00 +15°C° 0 mm 2 mps 770 mmHg 64%
    07:00 +17°C° 0 mm 2 mps 770 mmHg 52%
    08:00 +19°C° 0 mm 2 mps 770 mmHg 46%
    09:00 +20°C° 0 mm 2 mps 769 mmHg 39%
    10:00 +23°C° 0 mm 2 mps 769 mmHg 33%
    11:00 +24°C° 0 mm 2 mps 769 mmHg 31%
    12:00 +25°C° 0 mm 2 mps 769 mmHg 29%
    13:00 +24°C° 0 mm 2 mps 769 mmHg 28%
    14:00 +24°C° 0 mm 2 mps 768 mmHg 29%
    15:00 +24°C° 0 mm 2 mps 768 mmHg 30%
    16:00 +24°C° 0 mm 2 mps 767 mmHg 31%
    17:00 +21°C° 0 mm 2 mps 767 mmHg 38%
    18:00 +21°C° 0 mm 1 mps 767 mmHg 44%
    19:00 +20°C° 0 mm 1 mps 767 mmHg 51%
    20:00 +18°C° 0 mm 1 mps 767 mmHg 52%
    21:00 +16°C° 0 mm 1 mps 766 mmHg 54%
    22:00 +15°C° 0 mm 1 mps 766 mmHg 56%
    23:00 +14°C° 0 mm 1 mps 766 mmHg 57%

    Tomorrow, 22 May, Tuesday

    Time Temperature Precipitation Wind Pressure Humidity
    00:00 +14°C° 0 mm 1 mps 766 mmHg 58%
    01:00 +13°C° 0 mm 1 mps 766 mmHg 59%
    02:00 +13°C° 0 mm 2 mps 766 mmHg 61%
    03:00 +12°C° 0 mm 2 mps 765 mmHg 62%
    04:00 +10°C° 0 mm 2 mps 765 mmHg 64%
    05:00 +13°C° 0 mm 2 mps 765 mmHg 59%
    06:00 +15°C° 0 mm 2 mps 765 mmHg 53%
    07:00 +17°C° 0 mm 2 mps 765 mmHg 48%
    08:00 +19°C° 0 mm 2 mps 764 mmHg 43%
    09:00 +22°C° 0 mm 1 mps 764 mmHg 38%
    10:00 +24°C° 0 mm 1 mps 764 mmHg 34%
    11:00 +25°C° 0 mm 1 mps 764 mmHg 32%
    12:00 +26°C° 0 mm 2 mps 763 mmHg 31%
    13:00 +27°C° 0 mm 2 mps 763 mmHg 29%
    14:00 +25°C° 0 mm 2 mps 763 mmHg 33%
    15:00 +24°C° 0 mm 2 mps 763 mmHg 36%
    16:00 +22°C° 0 mm 3 mps 763 mmHg 39%
    17:00 +21°C° 0 mm 2 mps 763 mmHg 43%
    18:00 +20°C° 0 mm 2 mps 763 mmHg 47%
    19:00 +19°C° 0 mm 2 mps 763 mmHg 50%
    20:00 +18°C° 0 mm 1 mps 763 mmHg 54%
    21:00 +15°C° 0 mm 1 mps 763 mmHg 57%
    22:00 +13°C° 0 mm 1 mps 764 mmHg 61%
    23:00 +13°C° 0 mm 1 mps 764 mmHg 60%

    Day after tomorrow, 23 May, Wednesday

    Time Temperature Precipitation Wind Pressure Humidity
    00:00 +13°C° 0 mm 1 mps 764 mmHg 59%
    01:00 +12°C° 0 mm 1 mps 764 mmHg 59%
    02:00 +12°C° 0 mm 1 mps 765 mmHg 59%
    03:00 +12°C° 0 mm 1 mps 765 mmHg 60%
    04:00 +11°C° 0 mm 1 mps 765 mmHg 60%
    05:00 +14°C° 0 mm 1 mps 765 mmHg 55%
    06:00 +16°C° 0 mm 1 mps 766 mmHg 50%
    07:00 +19°C° 0 mm 1 mps 766 mmHg 45%
    08:00 +21°C° 0 mm 1 mps 766 mmHg 42%
    09:00 +23°C° 0 mm 1 mps 767 mmHg 38%
    10:00 +24°C° 0 mm 2 mps 767 mmHg 35%
    11:00 +25°C° 0 mm 2 mps 767 mmHg 33%
    12:00 +25°C° 0 mm 2 mps 767 mmHg 32%
    13:00 +26°C° 0 mm 2 mps 768 mmHg 31%
    14:00 +26°C° 0 mm 2 mps 768 mmHg 31%
    15:00 +26°C° 0 mm 2 mps 768 mmHg 32%
    16:00 +25°C° 0 mm 2 mps 768 mmHg 33%
    17:00 +24°C° 0 mm 2 mps 768 mmHg 37%
    18:00 +23°C° 0 mm 2 mps 768 mmHg 42%
    19:00 +21°C° 0 mm 2 mps 768 mmHg 47%
    20:00 +19°C° 0 mm 2 mps 769 mmHg 51%
    21:00 +17°C° 0 mm 2 mps 769 mmHg 55%
    22:00 +15°C° 0 mm 2 mps 770 mmHg 59%
    23:00 +14°C° 0 mm 2 mps 770 mmHg 59%

    24 May, Thursday

    Time Temperature Precipitation Wind Pressure Humidity
    00:00 +14°C° 0 mm 2 mps 770 mmHg 59%
    01:00 +14°C° 0 mm 2 mps 771 mmHg 59%
    02:00 +14°C° 0 mm 2 mps 771 mmHg 61%
    03:00 +13°C° 0 mm 2 mps 771 mmHg 64%
    04:00 +13°C° 0 mm 2 mps 771 mmHg 67%
    05:00 +15°C° 0 mm 2 mps 771 mmHg 62%
    06:00 +17°C° 0 mm 3 mps 772 mmHg 57%
    07:00 +19°C° 0 mm 3 mps 772 mmHg 53%
    08:00 +21°C° 0 mm 2 mps 772 mmHg 46%
    09:00 +24°C° 0 mm 2 mps 772 mmHg 40%
    10:00 +26°C° 0 mm 2 mps 772 mmHg 33%
    11:00 +27°C° 0 mm 2 mps 772 mmHg 31%
    12:00 +27°C° 0 mm 2 mps 772 mmHg 30%
    13:00 +28°C° 0 mm 2 mps 772 mmHg 28%
    14:00 +27°C° 0 mm 2 mps 772 mmHg 31%
    15:00 +27°C° 0 mm 2 mps 771 mmHg 33%
    16:00 +26°C° 0 mm 3 mps 771 mmHg 36%
    17:00 +25°C° 0 mm 3 mps 771 mmHg 39%
    18:00 +25°C° 0 mm 3 mps 771 mmHg 43%
    19:00 +24°C° 0 mm 3 mps 771 mmHg 46%
    20:00 +21°C° 0 mm 3 mps 771 mmHg 47%
    21:00 +19°C° 0 mm 3 mps 771 mmHg 48%
    22:00 +17°C° 0 mm 3 mps 772 mmHg 48%
    23:00 +14°C° 0 mm 3 mps 772 mmHg 50%

    25 May, Friday

    Time Temperature Precipitation Wind Pressure Humidity
    00:00 +13°C° 0 mm 4 mps 772 mmHg 51%
    01:00 +12°C° 0 mm 4 mps 772 mmHg 52%
    02:00 +12°C° 0 mm 3 mps 772 mmHg 57%
    03:00 +11°C° 0 mm 3 mps 772 mmHg 62%
    04:00 +10°C° 0 mm 3 mps 772 mmHg 67%
    05:00 +12°C° 0 mm 3 mps 771 mmHg 62%
    06:00 +14°C° 0 mm 3 mps 771 mmHg 58%
    07:00 +17°C° 0 mm 3 mps 771 mmHg 53%
    08:00 +19°C° 0 mm 2 mps 771 mmHg 48%
    09:00 +21°C° 0 mm 2 mps 771 mmHg 43%
    10:00 +24°C° 0 mm 2 mps 771 mmHg 38%
    11:00 +25°C° 0 mm 2 mps 771 mmHg 36%
    12:00 +26°C° 0 mm 2 mps 770 mmHg 33%
    13:00 +27°C° 0 mm 2 mps 770 mmHg 30%
    14:00 +28°C° 0 mm 2 mps 770 mmHg 31%
    15:00 +28°C° 0 mm 2 mps 770 mmHg 32%
    16:00 +28°C° 0 mm 3 mps 770 mmHg 33%
    17:00 +26°C° 0 mm 2 mps 769 mmHg 40%
    18:00 +24°C° 0 mm 2 mps 769 mmHg 47%
    19:00 +21°C° 0 mm 2 mps 769 mmHg 54%
    20:00 +20°C° 0 mm 2 mps 769 mmHg 58%
    21:00 +19°C° 0 mm 1 mps 770 mmHg 61%
    22:00 +18°C° 0 mm 1 mps 770 mmHg 65%
    23:00 +16°C° 0 mm 1 mps 770 mmHg 68%

    26 May, Saturday

    Time Temperature Precipitation Wind Pressure Humidity
    00:00 +16°C° 0 mm 2 mps 770 mmHg 71%
    01:00 +15°C° 0 mm 2 mps 770 mmHg 74%
    02:00 +15°C° 0 mm 2 mps 770 mmHg 77%
    03:00 +13°C° 0 mm 3 mps 770 mmHg 80%
    04:00 +13°C° 0 mm 3 mps 770 mmHg 83%
    05:00 +16°C° 0 mm 3 mps 770 mmHg 74%
    06:00 +18°C° 0 mm 3 mps 770 mmHg 66%
    07:00 +20°C° 0 mm 3 mps 770 mmHg 57%
    08:00 +23°C° 0 mm 2 mps 770 mmHg 50%
    09:00 +25°C° 0 mm 2 mps 770 mmHg 43%
    10:00 +27°C° 0 mm 2 mps 771 mmHg 36%
    11:00 +28°C° 0 mm 2 mps 770 mmHg 34%
    12:00 +29°C° 0 mm 2 mps 770 mmHg 33%
    13:00 +30°C° 0 mm 2 mps 770 mmHg 31%
    14:00 +29°C° 0 mm 2 mps 770 mmHg 33%
    15:00 +28°C° 0 mm 2 mps 770 mmHg 36%
    16:00 +27°C° 0 mm 2 mps 770 mmHg 39%
    17:00 +26°C° 0 mm 3 mps 770 mmHg 43%
    18:00 +25°C° 0 mm 3 mps 770 mmHg 47%
    19:00 +25°C° 0 mm 3 mps 770 mmHg 51%
    20:00 +22°C° 0 mm 3 mps 770 mmHg 56%
    21:00 +20°C° 0 mm 3 mps 770 mmHg 60%
    22:00 +18°C° 0 mm 3 mps 771 mmHg 65%
    23:00 +17°C° 0 mm 3 mps 771 mmHg 69%
    Show more